Home   Weather   City of Washington   Past weeks
Flag for USA

Past Weather in City of Washington, Kansas, USA — Yesterday and Last 2 Weeks

Now
67 °F

Clear.


Feels Like: 67 °F
Forecast: 91 / 66 °F
Wind: 6 mph from South

Location: Hebron Municipal Airport
Current Time: Sep 26, 2020 at 4:53:22 am
Latest Report: Sep 26, 2020 at 3:55 am
Visibility: 10 mi
Pressure29.69 "Hg
Humidity: 81%
Dew Point: 61 °F
Location of City of WashingtonLocation

Past Weather in City of Washington — Graph

°F

City of Washington Temperature Yesterday

Maximum temperature yesterday: 92 °F (at 3:15 pm)
Minimum temperature yesterday: 57 °F (at 7:35 am)
Average temperature yesterday: 73 °F

High & Low Weather Summary for the Past Weeks

 TemperatureHumidityPressure
High92 °F (Sep 25, 3:15 pm)98% (Sep 11, 8:15 am)30.35 "Hg (Sep 11, 8:15 am)
Low47 °F (Sep 13, 6:55 am)29% (Sep 25, 3:15 pm)29.69 "Hg (Sep 26, 3:35 am)
Average65 °F75%30.09 "Hg
* Reported Sep 11 3:15 am — Sep 26 3:35 am, City of Washington. Weather by CustomWeather, © 2020

Note: Actual official high and low records may vary slightly from our data, if they occured in-between our weather recording intervals... More about our weather records

City of Washington Weather History for the Previous 24 Hours

Scroll right to see more
 ConditionsComfort  
Time TempWeatherWind HumidityBarometerVisibility
3:35 am
Sat, Sep 26
65 °FClear.5 mph84%29.69 "Hg10 mi
3:15 am65 °FClear.5 mph86%29.70 "Hg10 mi
2:55 am65 °FClear.No wind85%29.71 "Hg10 mi
2:35 am65 °FClear.3 mph86%29.71 "Hg10 mi
1:55 am62 °FClear.No wind89%29.72 "Hg10 mi
1:35 am63 °FClear.No wind87%29.73 "Hg10 mi
1:15 am65 °FClear.No wind82%29.74 "Hg10 mi
12:55 am66 °FClear.No wind81%29.74 "Hg10 mi
12:35 am65 °FClear.No wind85%29.75 "Hg10 mi
12:15 am67 °FClear.3 mph80%29.76 "Hg10 mi
11:55 pm
Fri, Sep 25
64 °FClear.No wind88%29.77 "Hg10 mi
11:35 pm66 °FClear.No wind85%29.77 "Hg10 mi
11:15 pm65 °FClear.No wind85%29.77 "Hg10 mi
10:55 pm67 °FClear.No wind81%29.78 "Hg10 mi
10:35 pm69 °FClear.No wind77%29.77 "Hg10 mi
10:15 pm72 °FClear.No wind70%29.77 "Hg10 mi
9:55 pm71 °FClear.No wind73%29.77 "Hg10 mi
9:35 pm69 °FClear.3 mph82%29.77 "Hg10 mi
9:15 pm70 °FClear.No wind81%29.77 "Hg10 mi
8:35 pm73 °FClear.No wind72%29.76 "Hg10 mi
8:15 pm76 °FClear.No wind64%29.75 "Hg10 mi
7:55 pm78 °FClear.3 mph61%29.75 "Hg10 mi
6:55 pm84 °FSunny.No wind49%29.73 "Hg10 mi
6:35 pm87 °FSunny.3 mph44%29.73 "Hg10 mi
5:55 pm91 °FSunny.7 mph37%29.73 "Hg10 mi
5:15 pm91 °FSunny.8 mph35%29.72 "Hg10 mi
4:55 pm92 °FSunny.7 mph34%29.72 "Hg10 mi
4:35 pm92 °FSunny.6 mph33%29.72 "Hg10 mi
4:15 pm91 °FSunny.10 mph32%29.73 "Hg10 mi
3:55 pm91 °FSunny.10 mph31%29.74 "Hg10 mi
3:35 pm92 °FSunny.7 mph31%29.74 "Hg10 mi
3:15 pm92 °FSunny.9 mph29%29.74 "Hg10 mi
2:55 pm92 °FSunny.12 mph30%29.73 "Hg10 mi
2:35 pm92 °FSunny.12 mph31%29.74 "Hg10 mi
2:15 pm90 °FSunny.8 mph32%29.75 "Hg10 mi
1:55 pm90 °FSunny.6 mph34%29.76 "Hg10 mi
1:35 pm89 °FSunny.6 mph38%29.78 "Hg10 mi
12:55 pm85 °FSunny.5 mph42%29.79 "Hg10 mi
12:35 pm83 °FSunny.5 mph47%29.79 "Hg10 mi
12:15 pm82 °FSunny.7 mph47%29.79 "Hg10 mi
11:55 am81 °FSunny.5 mph52%29.80 "Hg10 mi
11:35 am79 °FSunny.5 mph57%29.81 "Hg10 mi
11:15 am77 °FSunny.5 mph60%29.81 "Hg10 mi
10:55 am75 °FSunny.No wind66%29.81 "Hg10 mi
10:35 am75 °FSunny.5 mph67%29.81 "Hg10 mi
10:15 am73 °FSunny.6 mph70%29.81 "Hg10 mi
9:55 am71 °FSunny.7 mph76%29.79 "Hg10 mi
9:35 am69 °FSunny.7 mph80%29.79 "Hg10 mi
9:15 am67 °FSunny.8 mph86%29.80 "Hg10 mi
8:55 am65 °FSunny.6 mph91%29.79 "Hg10 mi
8:35 am63 °FSunny.3 mph94%29.79 "Hg10 mi
8:15 am61 °FSunny.3 mph97%29.79 "Hg10 mi
7:55 am57 °FSunny.No wind97%29.79 "Hg7 mi
7:35 am57 °FSunny.No wind97%29.79 "Hg10 mi
7:15 am58 °FFog.No wind97%29.79 "Hg5 mi
6:55 am57 °FClear.No wind96%29.79 "Hg10 mi
6:35 am58 °FClear.No wind94%29.79 "Hg10 mi
6:15 am61 °FClear.No wind94%29.78 "Hg10 mi
5:55 am61 °FClear.3 mph94%29.78 "Hg10 mi
5:35 am62 °FClear.No wind93%29.78 "Hg10 mi
5:15 am62 °FClear.No wind93%29.78 "Hg10 mi
4:55 am62 °FClear.No wind93%29.78 "Hg10 mi
4:35 am62 °FClear.No wind92%29.78 "Hg10 mi
4:15 am63 °FClear.No wind91%29.78 "Hg10 mi
Weather by CustomWeather, © 2020

See weather overview